FW2489 Weather Reports


Display with metric or nautical units.
time (UTC)temp
F
wind
direction
speed
MPH
gust
MPH
rain 1hr
in
rain 24hr
in
rain mn
in
humidity
%
barometer
mb
20260506114700 48 61 4.0 10.0 0.00 0.00 0.00 95 1018.9
20260506113701 49 55 2.0 10.0 0.00 0.00 0.00 95 1019.3
20260506112701 49 59 2.0 8.0 0.00 0.00 0.00 95 1018.9
20260506111702 48 62 2.0 5.0 0.00 0.00 0.00 95 1018.9
20260506111140 48 53 0.0 2.0 0.00 0.00 0.00 94 1019.3
20260506105701 50 63 0.0 0.0 0.00 0.00 0.00 94 1018.9
20260506104706 50 64 0.0 0.0 0.00 0.00 0.00 95 1019.3
20260506103707 49 66 0.0 0.0 0.00 0.00 0.00 94 1019.3
20260506102704 49 62 0.0 0.0 0.00 0.00 0.00 94 1019.3
20260506101704 50 65 0.0 0.0 0.00 0.00 0.00 94 1019.3
20260506100701 51 63 0.0 0.0 0.00 0.00 0.00 94 1019.3
20260506095704 51 63 0.0 0.0 0.00 0.00 0.00 94 1018.9
20260506094701 51 63 0.0 0.0 0.00 0.00 0.00 94 1019.3
20260506093701 51 64 0.0 5.0 0.00 0.00 0.00 94 1018.9
20260506092704 52 54 0.0 2.0 0.00 0.00 0.00 94 1018.9
20260506091707 52 57 0.0 8.0 0.00 0.00 0.00 94 1018.9
20260506090704 52 66 0.0 8.0 0.00 0.00 0.00 93 1019.3
20260506085704 52 58 0.0 0.0 0.00 0.00 0.00 93 1019.3
20260506084706 52 54 0.0 0.0 0.00 0.00 0.00 93 1019.3
20260506083156 53 52 0.0 0.0 0.00 0.00 0.00 93 1019.3
20260506081705 53 52 0.0 0.0 0.00 0.00 0.00 92 1019.6
20260506080700 53 52 0.0 0.0 0.00 0.00 0.00 92 1019.3
20260506072705 54 61 0.0 0.0 0.00 0.00 0.00 91 1019.3
20260506071700 55 58 0.0 5.0 0.00 0.00 0.00 91 1019.3
20260506070707 55 187 0.0 5.0 0.00 0.00 0.00 91 1019.3
20260506061702 55 248 6.0 13.0 0.00 0.00 0.00 90 1018.9
20260506060704 56 238 6.0 13.0 0.00 0.00 0.00 90 1019.3
20260506060146 56 243 9.0 13.0 0.00 0.00 0.00 90 1018.9
20260506050708 56 343 2.0 8.0 0.00 0.00 0.00 88 1018.9
20260506043702 56 294 5.0 15.0 0.00 0.00 0.00 88 1018.2
20260506042701 56 281 4.0 10.0 0.00 0.00 0.00 88 1018.2
20260506041702 56 287 6.0 10.0 0.00 0.00 0.00 88 1018.2
20260506040705 56 329 5.0 13.0 0.00 0.00 0.00 88 1018.2
20260506035705 57 260 6.0 17.0 0.00 0.00 0.00 88 1017.9
20260506035149 57 326 9.0 17.0 0.00 0.00 0.00 88 1017.9
20260506033710 57 268 8.0 17.0 0.00 0.00 0.00 88 1017.9
20260506032700 57 257 8.0 20.0 0.00 0.00 0.00 87 1017.9
20260506032149 57 277 10.0 25.0 0.00 0.00 0.00 86 1017.6
20260506030701 57 278 16.0 23.0 0.00 0.00 0.00 86 1017.6
20260506025705 57 241 11.0 20.0 0.00 0.00 0.00 85 1017.2
20260506024707 58 257 6.0 17.0 0.00 0.00 0.00 84 1017.2
20260506023707 58 265 12.0 25.0 0.00 0.00 0.00 84 1017.2
20260506022700 58 256 6.0 25.0 0.00 0.00 0.00 84 1016.9
20260506021707 59 263 16.0 28.0 0.00 0.00 0.00 83 1017.2
20260506020704 59 256 23.0 30.0 0.00 0.00 0.00 82 1016.9
20260506015706 59 286 12.0 28.0 0.00 0.00 0.00 80 1016.9
20260506014702 59 264 11.0 28.0 0.00 0.00 0.00 80 1017.2
20260506013701 59 266 14.0 25.0 0.00 0.00 0.00 81 1016.9
20260506013157 59 242 16.0 28.0 0.00 0.00 0.00 80 1016.9
20260506011701 59 277 12.0 28.0 0.00 0.00 0.00 79 1016.9
20260506011159 59 309 13.0 28.0 0.00 0.00 0.00 78 1017.2
20260506010157 60 258 22.0 25.0 0.00 0.00 0.00 76 1017.2
20260506005156 59 273 13.0 30.0 0.00 0.00 0.00 76 1016.9
20260506002701 60 249 16.0 25.0 0.00 0.00 0.00 76 1017.2
20260506001706 60 250 16.0 25.0 0.00 0.00 0.00 75 1016.9
20260506000701 60 277 20.0 33.0 0.00 0.00 0.00 77 1016.9
20260505235658 61 265 16.0 28.0 0.00 0.00 0.00 77 1017.2
20260505234805 61 252 15.0 0.0 0.00 0.00 0.00 77 1017.2
20260505233548 61 257 16.0 0.0 0.00 0.00 0.00 75 1013.9
20260505233317 61 255 23.0 30.0 0.00 0.00 0.00 75 1013.9
20260505233059 61 277 14.0 0.0 0.00 0.00 0.00 74 1013.6
20260505232340 61 256 14.0 0.0 0.00 0.00 0.00 74 1013.6
20260505231018 61 252 15.0 0.0 0.00 0.00 0.00 76 1013.6
20260505230657 61 223 16.0 0.0 0.00 0.00 0.00 75 1013.9
20260505230107 61 234 20.0 0.0 0.00 0.00 0.00 75 1013.9
20260505225305 61 263 13.0 0.0 0.00 0.00 0.00 76 1013.9
20260505224151 61 232 22.0 30.0 0.00 0.00 0.00 74 1013.9
20260505222148 62 300 19.0 0.0 0.00 0.00 0.00 73 1013.9
20260505221704 61 277 23.0 28.0 0.00 0.00 0.00 74 1014.3
20260505220554 61 277 15.0 30.0 0.00 0.00 0.00 74 1014.3
20260505215528 60 277 21.0 35.0 0.00 0.00 0.00 75 1014.6
20260505214418 59 265 19.0 35.0 0.00 0.00 0.00 76 1014.6
20260505212026 60 243 18.0 35.0 0.00 0.00 0.00 74 1014.3
20260505210920 61 254 16.0 33.0 0.00 0.00 0.00 74 1014.3
20260505205811 61 251 24.0 33.0 0.00 0.00 0.00 71 1014.3
20260505204731 60 257 18.0 35.0 0.00 0.00 0.00 72 1014.3
20260505203705 60 242 12.0 28.0 0.00 0.00 0.00 72 1014.3
20260505202542 60 236 15.0 33.0 0.00 0.00 0.00 71 1014.3
20260505200150 59 282 20.0 40.0 0.00 0.00 0.00 71 1014.3
20260505195015 59 238 13.0 25.0 0.00 0.00 0.00 73 1014.3
20260505193908 60 275 16.0 28.0 0.00 0.00 0.00 73 1014.3
20260505192744 60 278 15.0 30.0 0.00 0.00 0.00 71 1014.3
20260505191624 61 261 20.0 28.0 0.00 0.00 0.00 71 1014.6
20260505190516 61 317 12.0 30.0 0.00 0.00 0.00 71 1014.3
20260505185342 61 237 11.0 25.0 0.00 0.00 0.00 72 1014.3
20260505184149 60 249 15.0 23.0 0.00 0.00 0.00 70 1013.9
20260505183029 59 253 11.0 20.0 0.00 0.00 0.00 72 1014.3
20260505181823 59 302 16.0 20.0 0.00 0.00 0.00 72 1013.9
20260505180250 59 250 13.0 25.0 0.00 0.00 0.00 73 1013.6
20260505173405 59 270 15.0 23.0 0.00 0.00 0.00 73 1013.6
20260505172243 59 265 14.0 25.0 0.00 0.00 0.00 74 1013.6
20260505171146 59 257 8.0 17.0 0.00 0.00 0.00 74 1013.9
20260505164638 58 333 5.0 17.0 0.00 0.00 0.00 74 1013.2
20260505162130 58 238 11.0 13.0 0.00 0.00 0.00 74 1013.6
20260505161543 58 267 8.0 17.0 0.00 0.00 0.00 76 1013.6
20260505152430 57 2 2.0 8.0 0.00 0.00 0.00 80 1012.9
20260505151430 57 56 0.0 2.0 0.00 0.00 0.00 82 1012.9
20260505150909 55 53 0.0 5.0 0.00 0.00 0.00 85 1012.9
20260505140432 48 70 6.0 8.0 0.00 0.00 0.00 94 1012.6
20260505124436 48 69 3.0 5.0 0.00 0.00 0.00 93 1011.9
20260505123430 48 57 0.0 0.0 0.00 0.00 0.00 93 1012.2
20260505122435 49 55 0.0 0.0 0.00 0.00 0.00 93 1012.2
20260505121429 49 67 0.0 0.0 0.00 0.00 0.00 93 1012.6
20260505120429 49 57 0.0 5.0 0.00 0.00 0.00 92 1012.2
20260505115434 49 73 3.0 5.0 0.00 0.00 0.00 92 1012.2